TimeCDT,TemperatureF,Dew PointF,Humidity,Sea Level PressureIn,VisibilityMPH,Wind Direction,Wind SpeedMPH,Gust SpeedMPH,PrecipitationIn,Events,Conditions,WindDirDegrees,DateUTC
12:15 AM,19.4,12.2,74,30.01,10.0,South,4.6,-,N/A,,Partly Cloudy,180,2013-03-11 05:15:00
12:35 AM,19.4,14.0,80,30.00,10.0,SSE,5.8,-,N/A,,Scattered Clouds,160,2013-03-11 05:35:00
12:55 AM,19.4,14.0,80,29.99,10.0,Calm,Calm,-,N/A,,Mostly Cloudy,0,2013-03-11 05:55:00
1:15 AM,19.4,14.0,80,29.97,10.0,Calm,Calm,-,N/A,,Mostly Cloudy,0,2013-03-11 06:15:00
2:15 AM,19.4,14.0,80,29.96,10.0,Calm,Calm,-,N/A,,Scattered Clouds,0,2013-03-11 07:15:00
2:35 AM,19.4,14.0,80,29.95,10.0,South,4.6,-,N/A,,Mostly Cloudy,190,2013-03-11 07:35:00
2:55 AM,19.4,14.0,80,29.94,10.0,South,6.9,-,N/A,,Mostly Cloudy,180,2013-03-11 07:55:00
3:15 AM,19.4,14.0,80,29.93,10.0,Calm,Calm,-,N/A,,Mostly Cloudy,0,2013-03-11 08:15:00
3:35 AM,19.4,14.0,80,29.92,10.0,Calm,Calm,-,N/A,,Overcast,0,2013-03-11 08:35:00
3:55 AM,19.4,14.0,80,29.92,10.0,Calm,Calm,-,N/A,,Overcast,0,2013-03-11 08:55:00
4:15 AM,19.4,14.0,80,29.91,10.0,SSW,5.8,-,N/A,,Overcast,200,2013-03-11 09:15:00
4:35 AM,19.4,14.0,80,29.89,10.0,SSE,6.9,-,N/A,,Overcast,160,2013-03-11 09:35:00
4:55 AM,19.4,15.8,86,29.88,10.0,South,6.9,-,N/A,,Overcast,180,2013-03-11 09:55:00
5:15 AM,21.2,15.8,80,29.86,10.0,South,5.8,-,N/A,,Overcast,190,2013-03-11 10:15:00
5:35 AM,23.0,15.8,74,29.84,8.0,South,4.6,-,N/A,Snow,Light Snow,170,2013-03-11 10:35:00
5:55 AM,23.0,17.6,80,29.82,3.0,SE,4.6,-,N/A,Snow,Light Snow,140,2013-03-11 10:55:00
6:15 AM,23.0,17.6,80,29.82,10.0,SSW,4.6,-,N/A,,Overcast,210,2013-03-11 11:15:00
6:35 AM,23.0,17.6,80,29.82,10.0,SSW,4.6,-,N/A,,Overcast,210,2013-03-11 11:35:00
6:55 AM,23.0,17.6,80,29.82,10.0,SSW,4.6,-,N/A,,Overcast,210,2013-03-11 11:55:00
7:15 AM,21.2,17.6,86,29.81,10.0,SSW,6.9,-,N/A,,Mostly Cloudy,210,2013-03-11 12:15:00
7:35 AM,21.2,15.8,80,29.80,10.0,South,5.8,-,N/A,,Scattered Clouds,180,2013-03-11 12:35:00
7:55 AM,19.4,15.8,86,29.79,10.0,Calm,Calm,-,N/A,,Clear,0,2013-03-11 12:55:00
8:15 AM,19.4,15.8,86,29.80,10.0,NNW,5.8,-,N/A,,Clear,330,2013-03-11 13:15:00
8:35 AM,19.4,15.8,86,29.80,10.0,Calm,Calm,-,N/A,,Clear,0,2013-03-11 13:35:00
8:55 AM,23.0,17.6,80,29.81,10.0,West,3.5,-,N/A,,Clear,270,2013-03-11 13:55:00
9:15 AM,21.2,17.6,86,29.82,10.0,West,6.9,-,N/A,,Clear,270,2013-03-11 14:15:00
9:35 AM,23.0,17.6,80,29.81,10.0,SW,6.9,-,N/A,,Clear,230,2013-03-11 14:35:00
9:55 AM,24.8,19.4,80,29.81,10.0,WSW,8.1,-,N/A,,Clear,250,2013-03-11 14:55:00
10:15 AM,28.4,23.0,80,29.83,10.0,WNW,15.0,19.6,N/A,,Mostly Cloudy,290,2013-03-11 15:15:00
10:35 AM,28.4,23.0,80,29.85,10.0,NW,17.3,21.9,N/A,,Scattered Clouds,310,2013-03-11 15:35:00
10:55 AM,28.4,21.2,74,29.85,10.0,NW,13.8,24.2,N/A,,Clear,320,2013-03-11 15:55:00
11:15 AM,30.2,23.0,75,29.85,10.0,NW,17.3,24.2,N/A,,Clear,310,2013-03-11 16:15:00
11:35 AM,32.0,23.0,69,29.85,10.0,NW,20.7,31.1,N/A,,Clear,310,2013-03-11 16:35:00
11:55 AM,32.0,23.0,69,29.85,10.0,NW,25.3,33.4,N/A,,Clear,310,2013-03-11 16:55:00
12:15 PM,32.0,24.8,75,29.86,10.0,NW,24.2,34.5,N/A,,Clear,310,2013-03-11 17:15:00
12:35 PM,32.0,24.8,75,29.86,10.0,NW,19.6,33.4,N/A,,Clear,320,2013-03-11 17:35:00
12:55 PM,32.0,24.8,75,29.88,10.0,NW,25.3,35.7,N/A,,Clear,320,2013-03-11 17:55:00
1:15 PM,33.8,24.8,70,29.88,10.0,NW,23.0,33.4,N/A,,Clear,320,2013-03-11 18:15:00
1:35 PM,33.8,24.8,70,29.88,10.0,NW,20.7,31.1,N/A,,Partly Cloudy,320,2013-03-11 18:35:00
1:55 PM,33.8,24.8,70,29.88,10.0,NW,19.6,33.4,N/A,,Partly Cloudy,320,2013-03-11 18:55:00
2:15 PM,35.6,24.8,65,29.88,10.0,NW,20.7,27.6,N/A,,Clear,320,2013-03-11 19:15:00
2:35 PM,35.6,24.8,65,29.87,10.0,WNW,20.7,29.9,N/A,,Clear,300,2013-03-11 19:35:00
2:55 PM,37.4,24.8,60,29.88,10.0,NW,19.6,27.6,N/A,,Clear,310,2013-03-11 19:55:00
3:15 PM,35.6,24.8,65,29.87,10.0,WNW,23.0,32.2,N/A,,Partly Cloudy,300,2013-03-11 20:15:00
3:35 PM,35.6,23.0,60,29.87,10.0,NW,17.3,31.1,N/A,,Clear,310,2013-03-11 20:35:00
3:55 PM,37.4,24.8,60,29.87,10.0,NW,18.4,26.5,N/A,,Clear,310,2013-03-11 20:55:00
4:15 PM,37.4,24.8,60,29.87,10.0,WNW,18.4,26.5,N/A,,Clear,300,2013-03-11 21:15:00
4:35 PM,37.4,23.0,56,29.88,10.0,NW,18.4,28.8,N/A,,Clear,310,2013-03-11 21:35:00
4:55 PM,37.4,23.0,56,29.88,10.0,NW,23.0,28.8,N/A,,Clear,310,2013-03-11 21:55:00
5:15 PM,37.4,23.0,56,29.88,10.0,WNW,23.0,31.1,N/A,,Clear,300,2013-03-11 22:15:00
5:35 PM,35.6,21.2,56,29.88,10.0,WNW,21.9,33.4,N/A,,Clear,300,2013-03-11 22:35:00
5:55 PM,35.6,19.4,52,29.88,10.0,NW,21.9,31.1,N/A,,Clear,310,2013-03-11 22:55:00
6:15 PM,35.6,19.4,52,29.88,10.0,NW,24.2,34.5,N/A,,Clear,310,2013-03-11 23:15:00
6:35 PM,33.8,21.2,60,29.89,10.0,NW,20.7,35.7,N/A,,Partly Cloudy,310,2013-03-11 23:35:00
6:55 PM,32.0,21.2,64,29.90,10.0,NW,21.9,38.0,N/A,,Mostly Cloudy,310,2013-03-11 23:55:00
7:15 PM,32.0,23.0,69,29.90,10.0,NW,20.7,27.6,N/A,,Overcast,310,2013-03-12 00:15:00
7:35 PM,32.0,19.4,60,29.91,10.0,WNW,20.7,36.8,N/A,,Mostly Cloudy,290,2013-03-12 00:35:00
7:55 PM,32.0,21.2,64,29.91,10.0,WNW,23.0,31.1,N/A,,Mostly Cloudy,300,2013-03-12 00:55:00
8:15 PM,30.2,23.0,75,29.92,10.0,WNW,21.9,28.8,N/A,Snow,Light Snow,300,2013-03-12 01:15:00
8:35 PM,28.4,23.0,80,29.92,10.0,WNW,26.5,29.9,N/A,,Mostly Cloudy,300,2013-03-12 01:35:00
8:55 PM,28.4,21.2,74,29.92,10.0,WNW,20.7,29.9,N/A,,Overcast,300,2013-03-12 01:55:00
9:15 PM,26.6,21.2,80,29.93,9.0,WNW,18.4,36.8,N/A,,Mostly Cloudy,300,2013-03-12 02:15:00
9:35 PM,26.6,21.2,80,29.93,9.0,WNW,21.9,33.4,N/A,Rain,Freezing Rain,300,2013-03-12 02:35:00
9:55 PM,26.6,23.0,86,29.94,6.0,NW,26.5,33.4,N/A,,Mostly Cloudy,310,2013-03-12 02:55:00
10:15 PM,26.6,23.0,86,29.95,4.0,NW,26.5,43.7,0.01,Snow,Light Snow,310,2013-03-12 03:15:00
10:35 PM,26.6,21.2,80,29.95,8.0,NW,21.9,35.7,0.01,Snow,Light Snow,310,2013-03-12 03:35:00
11:15 PM,24.8,19.4,80,29.98,8.0,NW,27.6,39.1,N/A,Snow,Light Snow,320,2013-03-12 04:15:00
11:35 PM,24.8,19.4,80,29.98,10.0,NW,32.2,44.9,N/A,Snow,Light Snow,310,2013-03-12 04:35:00
11:55 PM,24.8,19.4,80,30.00,3.0,NW,27.6,39.1,0.12,Snow,Light Snow,310,2013-03-12 04:55:00